Weather in Svetlyy

Russia / Sakha (Yakutia) Republic     63°02′59″N   113°25′37″E
temp.,
°C
wind,
m/s
gust,
m/s
humid.,
%
clouds,
%
prec.,
mm/h
press.,
hPa
HPBL,
m
10 april, sat
sat1000:00−13nnw4989100 0.1 1030608
03:00−16nnw4988100 0.1 1030440
06:00−18nnw4990100 0.0 1031427
09:00−18nnw4108686 0.0 1032545
12:00−15nnw5780100 0.0 1032951
15:00−13n5780100 0.2 10321123
18:00−11n4878100 0.1 10321267
21:00−13nnw3986100 0.1 1033371
11 april, sun
sun1100:00−15nnw399092 0.1 1033384
03:00−24wnw2210030 0.1 103412
06:00−27wnw2110013 0.0 103510
09:00−17nw26865 0.0 1033239
12:00−11nw47714 0.0 1031624
15:00−7nnw47675 0.0 1030815
18:00−6nnw37703 0.0 1030846
21:00−15wnw11935 0.0 10319
12 april, mon
mon1200:00−22wnw1110027 0.0 10319
03:00−25w1110067 0.0 10329
06:00−27w1110091 0.0 10329
09:00−14w129368 0.0 1030117
12:00−7w23795 0.0 1027468
15:00−3wsw347373 0.0 1025812
18:00−3wsw3680100 0.0 1023882
21:00−9s2196100 0.0 102111
13 april, tue
tue1300:00−9s2496100 0.0 101966
03:00−8s2697100 0.0 1015116
06:00−6s3109497 0.1 1011335
09:00−4ssw51292100 0.1 1007557
12:00−1ssw5990100 0.1 1002966
15:00−1ssw51195100 1.6 999919
18:000wsw51089100 0.9 9971005
21:00−3wsw5128690 1.0 998608
14 april, wed
wed1400:00−4wsw6148797 0.0 998751
03:00−4wsw61390100 0.1 998796
06:00−6wsw5139198 0.0 999530
09:00−5wsw4119399 0.1 1000560
12:00−2wsw4890100 0.2 999856
15:00−1w5788100 1.3 9991016
18:00−1w4882100 1.0 1000948
21:00−5wsw269256 1.3 100197